• In Deutschland
  • Länderverzeichnis
  • Für 7 Tage
  • Wassertemperatur
  • Satellitenkarten
  • Wetterkarte
  • Widgets
  • user-avatar
    Anmelden

    Stündliche Wetter Kuntaur

    Heute, 18 Februar, Sonntag

    Zeit Temperatur Niederschläge Wind Luftdruck Luftfeuchtigkeit
    00:00 +28°C° 0 mm 4 m/S 756 mmHg 38%
    01:00 +27°C° 0 mm 4 m/S 756 mmHg 41%
    02:00 +26°C° 0 mm 3 m/S 756 mmHg 45%
    03:00 +25°C° 0 mm 3 m/S 756 mmHg 46%
    04:00 +24°C° 0 mm 3 m/S 756 mmHg 48%
    05:00 +24°C° 0 mm 2 m/S 756 mmHg 48%
    06:00 +24°C° 0 mm 2 m/S 756 mmHg 45%
    07:00 +25°C° 0 mm 2 m/S 756 mmHg 41%
    08:00 +26°C° 0 mm 3 m/S 756 mmHg 38%
    09:00 +29°C° 0 mm 2 m/S 756 mmHg 31%
    10:00 +34°C° 0 mm 2 m/S 756 mmHg 24%
    11:00 +37°C° 0 mm 1 m/S 755 mmHg 17%
    12:00 +39°C° 0 mm 1 m/S 755 mmHg 15%
    13:00 +41°C° 0 mm 1 m/S 754 mmHg 13%
    14:00 +42°C° 0 mm 1 m/S 753 mmHg 12%
    15:00 +42°C° 0 mm 2 m/S 753 mmHg 12%
    16:00 +41°C° 0 mm 2 m/S 753 mmHg 13%
    17:00 +40°C° 0 mm 3 m/S 753 mmHg 13%
    18:00 +39°C° 0 mm 3 m/S 753 mmHg 15%
    19:00 +37°C° 0 mm 3 m/S 754 mmHg 18%
    20:00 +35°C° 0 mm 3 m/S 755 mmHg 20%
    21:00 +34°C° 0 mm 3 m/S 755 mmHg 21%
    22:00 +32°C° 0 mm 4 m/S 755 mmHg 22%
    23:00 +30°C° 0 mm 4 m/S 755 mmHg 23%

    Morgen, 19 Februar, Montag

    Zeit Temperatur Niederschläge Wind Luftdruck Luftfeuchtigkeit
    00:00 +29°C° 0 mm 4 m/S 755 mmHg 24%
    01:00 +28°C° 0 mm 3 m/S 755 mmHg 25%
    02:00 +27°C° 0 mm 3 m/S 755 mmHg 25%
    03:00 +26°C° 0 mm 2 m/S 755 mmHg 27%
    04:00 +25°C° 0 mm 2 m/S 755 mmHg 28%
    05:00 +24°C° 0 mm 1 m/S 755 mmHg 29%
    06:00 +25°C° 0 mm 1 m/S 756 mmHg 28%
    07:00 +26°C° 0 mm 1 m/S 756 mmHg 27%
    08:00 +27°C° 0 mm 1 m/S 757 mmHg 26%
    09:00 +30°C° 0 mm 1 m/S 757 mmHg 21%
    10:00 +33°C° 0 mm 1 m/S 757 mmHg 17%
    11:00 +36°C° 0 mm 1 m/S 757 mmHg 13%
    12:00 +38°C° 0 mm 2 m/S 756 mmHg 12%
    13:00 +39°C° 0 mm 2 m/S 755 mmHg 12%
    14:00 +41°C° 0 mm 2 m/S 754 mmHg 11%
    15:00 +40°C° 0 mm 2 m/S 753 mmHg 11%
    16:00 +40°C° 0 mm 3 m/S 753 mmHg 12%
    17:00 +40°C° 0 mm 3 m/S 753 mmHg 12%
    18:00 +38°C° 0 mm 3 m/S 753 mmHg 14%
    19:00 +36°C° 0 mm 3 m/S 754 mmHg 16%
    20:00 +34°C° 0 mm 3 m/S 755 mmHg 18%
    21:00 +33°C° 0 mm 3 m/S 755 mmHg 22%
    22:00 +30°C° 0 mm 4 m/S 755 mmHg 26%
    23:00 +29°C° 0 mm 4 m/S 756 mmHg 30%

    übermorgen, 20 Februar, Dienstag

    Zeit Temperatur Niederschläge Wind Luftdruck Luftfeuchtigkeit
    00:00 +28°C° 0 mm 4 m/S 756 mmHg 31%
    01:00 +27°C° 0 mm 4 m/S 756 mmHg 32%
    02:00 +26°C° 0 mm 4 m/S 755 mmHg 34%
    03:00 +25°C° 0 mm 3 m/S 755 mmHg 35%
    04:00 +24°C° 0 mm 2 m/S 755 mmHg 36%
    05:00 +23°C° 0 mm 2 m/S 756 mmHg 37%
    06:00 +24°C° 0 mm 1 m/S 756 mmHg 35%
    07:00 +25°C° 0 mm 1 m/S 756 mmHg 33%
    08:00 +26°C° 0 mm 1 m/S 757 mmHg 30%
    09:00 +30°C° 0 mm 1 m/S 757 mmHg 25%
    10:00 +33°C° 0 mm 1 m/S 757 mmHg 20%
    11:00 +36°C° 0 mm 1 m/S 756 mmHg 15%
    12:00 +38°C° 0 mm 2 m/S 755 mmHg 14%
    13:00 +40°C° 0 mm 2 m/S 754 mmHg 14%
    14:00 +42°C° 0 mm 3 m/S 753 mmHg 13%
    15:00 +42°C° 0 mm 3 m/S 753 mmHg 13%
    16:00 +41°C° 0 mm 4 m/S 753 mmHg 13%
    17:00 +41°C° 0 mm 4 m/S 753 mmHg 13%
    18:00 +38°C° 0 mm 4 m/S 754 mmHg 16%
    19:00 +36°C° 0 mm 4 m/S 754 mmHg 18%
    20:00 +34°C° 0 mm 4 m/S 755 mmHg 20%
    21:00 +33°C° 0 mm 4 m/S 755 mmHg 22%
    22:00 +30°C° 0 mm 5 m/S 756 mmHg 24%
    23:00 +29°C° 0 mm 5 m/S 756 mmHg 26%

    21 Februar, Mittwoch

    Zeit Temperatur Niederschläge Wind Luftdruck Luftfeuchtigkeit
    00:00 +28°C° 0 mm 4 m/S 756 mmHg 27%
    01:00 +27°C° 0 mm 4 m/S 755 mmHg 28%
    02:00 +26°C° 0 mm 3 m/S 755 mmHg 29%
    03:00 +25°C° 0 mm 3 m/S 755 mmHg 30%
    04:00 +25°C° 0 mm 3 m/S 755 mmHg 31%
    05:00 +24°C° 0 mm 3 m/S 755 mmHg 32%
    06:00 +25°C° 0 mm 3 m/S 756 mmHg 31%
    07:00 +26°C° 0 mm 3 m/S 756 mmHg 30%
    08:00 +26°C° 0 mm 3 m/S 757 mmHg 30%
    09:00 +29°C° 0 mm 3 m/S 757 mmHg 25%
    10:00 +33°C° 0 mm 3 m/S 757 mmHg 21%
    11:00 +36°C° 0 mm 3 m/S 756 mmHg 16%
    12:00 +38°C° 0 mm 3 m/S 755 mmHg 15%
    13:00 +39°C° 0 mm 3 m/S 754 mmHg 14%
    14:00 +41°C° 0 mm 4 m/S 753 mmHg 13%
    15:00 +41°C° 0 mm 4 m/S 753 mmHg 14%
    16:00 +41°C° 0 mm 4 m/S 753 mmHg 14%
    17:00 +41°C° 0 mm 4 m/S 753 mmHg 15%
    18:00 +38°C° 0 mm 4 m/S 753 mmHg 17%
    19:00 +36°C° 0 mm 4 m/S 754 mmHg 19%
    20:00 +34°C° 0 mm 4 m/S 755 mmHg 21%
    21:00 +32°C° 0 mm 4 m/S 755 mmHg 23%
    22:00 +30°C° 0 mm 4 m/S 755 mmHg 26%
    23:00 +28°C° 0 mm 4 m/S 755 mmHg 29%

    22 Februar, Donnerstag

    Zeit Temperatur Niederschläge Wind Luftdruck Luftfeuchtigkeit
    00:00 +27°C° 0 mm 4 m/S 755 mmHg 32%
    01:00 +26°C° 0 mm 4 m/S 754 mmHg 35%
    02:00 +25°C° 0 mm 4 m/S 754 mmHg 37%
    03:00 +23°C° 0 mm 4 m/S 754 mmHg 40%
    04:00 +22°C° 0 mm 4 m/S 754 mmHg 42%
    05:00 +21°C° 0 mm 3 m/S 755 mmHg 45%
    06:00 +22°C° 0 mm 3 m/S 755 mmHg 44%
    07:00 +22°C° 0 mm 3 m/S 755 mmHg 43%
    08:00 +22°C° 0 mm 3 m/S 756 mmHg 42%
    09:00 +26°C° 0 mm 3 m/S 756 mmHg 34%
    10:00 +29°C° 0 mm 3 m/S 755 mmHg 26%
    11:00 +33°C° 0 mm 3 m/S 755 mmHg 17%
    12:00 +35°C° 0 mm 3 m/S 754 mmHg 16%
    13:00 +36°C° 0 mm 3 m/S 753 mmHg 14%
    14:00 +38°C° 0 mm 4 m/S 752 mmHg 13%
    15:00 +38°C° 0 mm 4 m/S 752 mmHg 13%
    16:00 +37°C° 0 mm 4 m/S 752 mmHg 14%
    17:00 +37°C° 0 mm 4 m/S 752 mmHg 14%
    18:00 +35°C° 0 mm 4 m/S 753 mmHg 16%
    19:00 +33°C° 0 mm 4 m/S 753 mmHg 19%
    20:00 +30°C° 0 mm 4 m/S 754 mmHg 21%
    21:00 +29°C° 0 mm 4 m/S 754 mmHg 26%
    22:00 +27°C° 0 mm 5 m/S 754 mmHg 32%
    23:00 +25°C° 0 mm 5 m/S 755 mmHg 37%

    23 Februar, Freitag

    Zeit Temperatur Niederschläge Wind Luftdruck Luftfeuchtigkeit
    00:00 +23°C° 0 mm 4 m/S 755 mmHg 41%
    01:00 +22°C° 0 mm 4 m/S 754 mmHg 45%
    02:00 +20°C° 0 mm 4 m/S 754 mmHg 49%
    03:00 +20°C° 0 mm 3 m/S 754 mmHg 53%
    04:00 +19°C° 0 mm 3 m/S 754 mmHg 56%
    05:00 +19°C° 0 mm 2 m/S 754 mmHg 60%
    06:00 +19°C° 0 mm 3 m/S 755 mmHg 58%
    07:00 +20°C° 0 mm 3 m/S 755 mmHg 56%
    08:00 +20°C° 0 mm 4 m/S 756 mmHg 55%
    09:00 +24°C° 0 mm 3 m/S 756 mmHg 45%
    10:00 +26°C° 0 mm 3 m/S 756 mmHg 36%
    11:00 +29°C° 0 mm 2 m/S 756 mmHg 26%
    12:00 +31°C° 0 mm 3 m/S 755 mmHg 24%
    13:00 +34°C° 0 mm 3 m/S 754 mmHg 21%
    14:00 +36°C° 0 mm 4 m/S 753 mmHg 19%
    15:00 +35°C° 0 mm 4 m/S 753 mmHg 19%
    16:00 +35°C° 0 mm 4 m/S 753 mmHg 20%
    17:00 +35°C° 0 mm 5 m/S 753 mmHg 20%
    18:00 +34°C° 0 mm 4 m/S 754 mmHg 23%
    19:00 +32°C° 0 mm 4 m/S 755 mmHg 25%
    20:00 +29°C° 0 mm 4 m/S 755 mmHg 28%
    21:00 +27°C° 0 mm 4 m/S 756 mmHg 32%
    22:00 +25°C° 0 mm 4 m/S 756 mmHg 37%
    23:00 +23°C° 0 mm 4 m/S 756 mmHg 41%
    Mehr zeigen